Weather History for KBHM - July, 2013

Change the Weather History Date:

Saturday, July 27, 2013

  Actual Average Record
Temperature  
Mean Temperature 78 °F 81 °F  
Max Temperature 85 °F 91 °F 102 °F (1952)
Min Temperature 70 °F 72 °F 59 °F (1911)
Cooling Degree Days 13 16  
Month to date cooling degree days 358 429  
Year to date cooling degree days 1044 1093  
Since 1 June cooling degree days 779 811  
Growing Degree Days 27 (Base 50)    
Moisture  
Dew Point 67 °F    
Average Humidity 67    
Maximum Humidity 90    
Minimum Humidity 44    
Precipitation  
Precipitation T in 0.14 in 5.47 in (1985)
Month to date precipitation 7.84 4.22  
Year to date precipitation 47.01 32.57  
Sea Level Pressure  
Sea Level Pressure 29.96 in    
Wind  
Wind Speed 3 mph (SW)    
Max Wind Speed 9 mph    
Max Gust Speed 13 mph    
Visibility 9 miles    
Events Rain    
T = Trace of Precipitation, MM = Missing Value Source: NWS Daily Summary

Daily Weather History Graph

Daily Weather History Graph

Search for Another Location

Airport or City:

Trip Planner

Search our weather history database for the weather conditions in past years. The results will help you decide how hot, cold, wet, or windy it might be!

Date:

Astronomy

Jul. 27, 2013 Rise Set
Actual Time 5:55 AM CDT 7:50 PM CDT
Civil Twilight 5:28 AM CDT 8:18 PM CDT
Nautical Twilight 4:55 AM CDT 8:51 PM CDT
Astronomical Twilight 4:19 AM CDT 9:26 PM CDT
Moon 10:58 PM CDT (7/27) 11:16 AM CDT (7/27)
Length of Visible Light 14h 49m
Length of Day
13h 54m
Waning Gibbous, 70% of the Moon is Illuminated
Jul 27
Waning Gibbous
Jul 29
Last Quarter
Aug 6
New
Aug 14
First Quarter
Aug 20
Full

Hourly Weather History & Observations

Time (CDT) Temp. Heat Index Dew Point Humidity Pressure Visibility Wind Dir Wind Speed Gust Speed Precip Events Conditions
12:53 AM 73.0 °F - 69.1 °F 87% 29.98 in 10.0 mi Calm Calm - N/A   Clear
1:53 AM 73.0 °F - 68.0 °F 84% 29.99 in 10.0 mi Calm Calm - N/A   Partly Cloudy
2:53 AM 72.0 °F - 68.0 °F 87% 29.96 in 8.0 mi Calm Calm - N/A   Scattered Clouds
3:53 AM 71.1 °F - 66.9 °F 87% 29.96 in 9.0 mi Calm Calm - N/A   Partly Cloudy
4:53 AM 70.0 °F - 66.9 °F 90% 29.96 in 8.0 mi Calm Calm - N/A   Clear
5:53 AM 71.1 °F - 66.9 °F 87% 29.97 in 8.0 mi Calm Calm - N/A   Partly Cloudy
6:53 AM 72.0 °F - 68.0 °F 87% 29.99 in 6.0 mi Calm Calm - N/A   Scattered Clouds
7:53 AM 73.0 °F - 69.1 °F 87% 30.00 in 6.0 mi Calm Calm - 0.00 in Rain Light Rain
8:53 AM 75.0 °F - 70.0 °F 84% 29.99 in 6.0 mi SW 3.5 mph - 0.00 in   Haze
9:53 AM 77.0 °F - 69.1 °F 76% 29.98 in 8.0 mi SSW 3.5 mph - N/A   Mostly Cloudy
10:53 AM 78.1 °F - 66.9 °F 68% 29.98 in 9.0 mi Variable 3.5 mph - N/A   Mostly Cloudy
11:53 AM 80.1 °F 81.9 °F 64.9 °F 60% 29.99 in 10.0 mi SSW 4.6 mph - N/A   Mostly Cloudy
12:53 PM 80.1 °F 81.7 °F 64.0 °F 58% 29.98 in 10.0 mi SW 8.1 mph - N/A   Overcast
1:53 PM 82.0 °F 83.1 °F 63.0 °F 52% 29.96 in 10.0 mi Variable 3.5 mph - N/A   Mostly Cloudy
2:53 PM 84.0 °F 84.0 °F 60.1 °F 44% 29.94 in 10.0 mi NNW 8.1 mph - N/A   Mostly Cloudy
3:53 PM 84.0 °F 84.4 °F 61.0 °F 46% 29.93 in 10.0 mi NNW 5.8 mph - N/A   Scattered Clouds
4:53 PM 84.0 °F 84.9 °F 63.0 °F 49% 29.92 in 10.0 mi Calm Calm - N/A   Partly Cloudy
5:53 PM 84.0 °F 85.8 °F 64.9 °F 53% 29.91 in 10.0 mi Calm Calm - N/A   Partly Cloudy
6:53 PM 82.0 °F 83.8 °F 64.9 °F 56% 29.93 in 10.0 mi Calm Calm - N/A   Mostly Cloudy
7:53 PM 79.0 °F - 69.1 °F 72% 29.94 in 10.0 mi North 3.5 mph - N/A   Overcast
8:53 PM 79.0 °F - 68.0 °F 69% 29.94 in 10.0 mi Calm Calm - N/A   Mostly Cloudy
9:53 PM 78.1 °F - 69.1 °F 74% 29.95 in 10.0 mi South 4.6 mph - N/A   Overcast
10:53 PM 77.0 °F - 69.1 °F 76% 29.96 in 10.0 mi SSW 6.9 mph - N/A   Overcast
11:19 PM 77.0 °F - 69.8 °F 78% 29.98 in 10.0 mi South 4.6 mph - N/A   Overcast
11:33 PM 77.0 °F - 69.8 °F 78% 29.98 in 10.0 mi South 6.9 mph - N/A   Overcast
11:53 PM 77.0 °F - 69.1 °F 76% 29.96 in 10.0 mi SSW 5.8 mph - N/A   Overcast